Find Starlink 3786

NORAD ID: 52263 Int'l Des: 2022-041 Owner: SPXS Country: US Constellation: starlink operational
LEOCIRCULAR

实时位置

正在加载3D地球...

关于 Starlink 3786

正在加载描述...

即将过境

Passes for default location (London). Set your location on the main map for personalized predictions.

高度历史

Loading altitude history...

两行轨道根数

1 52263U 22041C 26127.20559847 -.00000191 00000-0 60498-5 0 9999
2 52263 53.2169 206.4316 0001068 89.0042 271.1072 15.08836670223197
Epoch: May 7, 2026 • Age: 13 hours

当前状态

高度 542.6 km
速度 7.60 km/s
星下点 39.00°N, 151.96°W
发射日期 Apr 21, 2022
运行时间 4 years
类型 internet

技术详情

分类 Payload
质量 297.00 kg
干质量 275.00 kg
总质量 297.00 kg
长度 0.20 m
直径 2.80 m
跨度 9.00 m
形状 Box + pan
制造商 SPXS
平台类型 Starlink
阶段状态 In Orbit
所有者/国家 SPXS/US

Most Searched